Location: *
(51.8167°N, 12.5000°E)
Time: 08:08:12
(UTC+00:00)

Cosmos 2297 Rocket - Pass Details

Date: 16 September 2019
Orbit: 841 x 842 km, 71.0° (Epoch: 18 October)

Event Time Altitude Azimuth Distance (km) Brightness Sun altitude
Exits shadow 18:07:11 - 109° (ESE) 2,550 4.0 -7.5°
Maximum altitude 18:08:48 10° 93° (E) 2,467 4.0 -7.8°
Drops below altitude 10° 18:09:01 10° 91° (E) 2,469 4.0 -7.8°
Sets 18:14:37 0° 47° (NE) 3,409 5.0 -8.6°
